TimeCST,TemperatureF,Dew PointF,Humidity,Sea Level PressureIn,VisibilityMPH,Wind Direction,Wind SpeedMPH,Gust SpeedMPH,PrecipitationIn,Events,Conditions,WindDirDegrees,DateUTC
12:51 AM,61.0,48.9,64,30.11,10.0,Calm,Calm,-,N/A,,Mostly Cloudy,0,2012-11-04 05:51:00
1:51 AM,59.0,48.9,69,30.11,10.0,NNE,3.5,-,N/A,,Clear,30,2012-11-04 06:51:00
1:51 AM,57.0,48.0,72,30.10,10.0,NE,5.8,-,N/A,,Clear,40,2012-11-04 07:51:00
2:51 AM,54.0,46.0,75,30.09,10.0,Calm,Calm,-,N/A,,Clear,0,2012-11-04 08:51:00
3:51 AM,53.1,46.9,80,30.09,10.0,Calm,Calm,-,N/A,,Clear,0,2012-11-04 09:51:00
4:51 AM,51.1,46.0,83,30.12,10.0,West,4.6,-,N/A,,Clear,280,2012-11-04 10:51:00
5:51 AM,50.0,45.0,83,30.13,10.0,West,3.5,-,N/A,,Clear,280,2012-11-04 11:51:00
7:51 AM,50.0,46.0,86,30.16,10.0,West,3.5,-,N/A,,Clear,270,2012-11-04 13:51:00
8:51 AM,57.9,48.0,70,30.17,10.0,Calm,Calm,-,N/A,,Clear,0,2012-11-04 14:51:00
10:51 AM,66.9,48.9,52,30.17,10.0,ENE,4.6,-,N/A,,Clear,70,2012-11-04 16:51:00
11:51 AM,69.1,50.0,51,30.14,10.0,ENE,4.6,-,N/A,,Clear,60,2012-11-04 17:51:00
12:51 PM,73.0,50.0,44,30.11,10.0,North,4.6,-,N/A,,Clear,10,2012-11-04 18:51:00
1:51 PM,73.9,48.9,41,30.09,10.0,Calm,Calm,-,N/A,,Clear,0,2012-11-04 19:51:00
2:51 PM,75.0,50.0,41,30.07,10.0,Calm,Calm,-,N/A,,Clear,0,2012-11-04 20:51:00
3:51 PM,75.9,50.0,40,30.06,10.0,Calm,Calm,-,N/A,,Clear,0,2012-11-04 21:51:00
4:51 PM,73.9,52.0,46,30.06,10.0,SE,5.8,-,N/A,,Clear,130,2012-11-04 22:51:00
5:51 PM,69.1,53.1,57,30.07,10.0,ESE,5.8,-,N/A,,Clear,110,2012-11-04 23:51:00
6:51 PM,64.9,52.0,63,30.08,10.0,ESE,4.6,-,N/A,,Clear,110,2012-11-05 00:51:00
7:51 PM,61.0,51.1,70,30.09,10.0,SSE,5.8,-,N/A,,Clear,160,2012-11-05 01:51:00
8:51 PM,60.1,51.1,72,30.08,10.0,South,5.8,-,N/A,,Clear,180,2012-11-05 02:51:00
9:51 PM,57.0,50.0,77,30.09,10.0,Calm,Calm,-,N/A,,Clear,0,2012-11-05 03:51:00
10:51 PM,57.0,51.1,81,30.08,10.0,Calm,Calm,-,N/A,,Clear,0,2012-11-05 04:51:00